{"data":{"norad_id":64596,"epoch":"2026-09-19T22:26:39.511392Z","epoch_age_seconds":180401,"freshness":"STALE","line1":"1 64596U 25137C   26262.93517953  .00015855  00000+0  47932-3 0  9999","line2":"2 64596  53.1586 150.2283 0001356  75.7417 284.3736 15.34404009 70513","mean_motion":15.34404009,"eccentricity":0.0001356,"inclination_deg":53.1586,"raan_deg":150.2283,"arg_perigee_deg":75.7417,"mean_anomaly_deg":284.3736,"bstar":0.00047932,"rev_number":7051,"period_min":93.847512881466,"perigee_km":461.76370831937,"apogee_km":463.61894096101,"semimajor_km":6840.8283246402,"source":"CELESTRAK","updated_at":"2026-09-21T09:00:35.363922Z"}}